CAPE
0 0 0 0 1 1 0 0 0 0 0 0 7 32 76 52 29 26 18 24 18 10 28 39 27 4 0 0 0 0 0 0 0 0 0 0 0 5 16 30 43 21 1
0 0 0 0 0 0 0 0 0 0 0 0 23 60 26 7 24 11 19 28 32 28 48 64 14 0 0 0 0 5 0 0 1 7 0 0 1 32 42 64 86 47 2
0 2 0 0 0 0 0 0 0 0 0 0 12 39 35 47 48 23 27 39 18 33 41 48 14 0 0 0 0 7 3 1 0 0 0 0 0 48 53 135 226 230 235
0 0 0 0 0 0 0 0 0 0 0 0 0 3 19 31 14 4 18 31 23 33 37 40 3 0 0 1 0 5 0 1 0 1 0 0 0 11 33 103 113 49 77
0 0 0 0 1 0 0 0 0 0 2 2 5 0 0 0 4 2 15 10 29 18 11 38 18 0 0 17 6 0 1 0 1 1 0 0 0 46 16 11 9 4 1
0 0 0 0 0 0 0 0 0 0 0 0 6 19 17 0 8 2 20 6 16 24 26 20 21 1 0 1 12 3 13 5 2 0 0 0 1 2 1 1 2 2 0
0 0 0 0 0 0 0 0 0 0 0 0 0 12 14 5 3 2 12 11 10 3 8 11 9 27 1 0 7 24 21 12 1 0 3 0 0 0 0 0 0 0 0
0 0 0 0 0 0 0 0 0 0 0 0 0 0 4 7 9 15 4 14 15 9 8 14 0 0 0 8 17 1 0 2 5 1 9 2 3 0 0 0 0 0 0
0 0 0 0 0 0 0 0 0 0 0 3 0 8 5 14 11 3 5 19 3 0 0 18 7 14 0 12 4 4 0 1 0 1 0 0 0 0 0 0 0 0 0
0 0 0 0 0 0 0 0 2 0 8 2 5 25 9 6 6 0 6 9 12 0 7 7 15 17 0 0 13 8 0 0 0 0 0 0 1 0 0 0 0 0 0
0 0 0 0 0 0 0 0 0 3 17 0 3 6 3 15 2 0 0 0 0 0 10 27 19 9 0 0 8 0 0 0 0 0 0 0 0 0 0 0 0 0 10
0 0 0 0 0 0 0 0 0 10 4 13 4 7 1 22 11 0 1 0 0 17 34 29 22 0 0 0 0 0 0 0 0 0 0 0 0 0 0 0 0 0 0
0 0 0 0 0 0 0 1 5 2 5 0 0 0 2 4 2 0 0 0 0 15 35 15 19 19 0 0 0 0 0 0 0 0 0 0 0 0 0 0 0 0 0
0 0 0 4 6 0 0 7 20 19 11 1 0 0 1 2 1 0 0 0 0 1 1 0 3 5 0 0 0 0 0 0 0 0 0 0 0 0 0 0 0 0 0
0 0 0 4 5 0 0 6 42 27 0 0 0 0 0 1 1 0 0 0 0 0 0 0 0 0 0 0 0 0 0 0 0 0 0 0 5 0 0 0 0 0 0
0 5 0 0 2 1 0 6 7 2 9 0 0 0 0 0 0 0 0 0 0 0 0 0 0 0 0 0 0 0 0 0 0 0 0 0 0 10 3 4 3 5 3
2 0 0 0 0 1 0 0 0 0 0 0 0 0 0 0 0 0 0 0 0 0 0 0 0 0 0 0 0 1 0 0 0 0 0 0 0 0 0 3 1 3 12
0 0 0 0 1 0 0 0 0 0 0 0 0 0 0 0 0 0 0 0 0 0 0 0 0 6 11 16 16 19 8 4 0 0 0 0 0 0 0 0 0 4 0
0 0 0 0 0 0 0 0 0 0 0 0 0 0 0 0 0 0 0 0 0 0 0 0 0 1 5 2 3 6 9 6 0 0 0 0 0 0 0 0 0 0 0
0 0 0 0 0 0 0 0 0 0 0 0 0 0 0 0 0 0 0 0 0 0 0 0 5 11 5 0 2 0 5 12 0 0 0 0 0 0 0 0 0 0 0
0 0 0 0 0 0 0 0 0 0 0 0 0 0 0 0 0 0 0 0 0 0 0 0 0 8 8 2 0 0 2 4 2 4 0 4 2 2 0 0 0 0 0
0 0 0 0 0 0 0 0 0 0 0 0 0 0 0 0 0 0 0 0 0 0 0 2 7 16 31 19 10 12 5 1 5 5 4 1 0 0 0 0 0 0 0
0 0 0 0 0 0 0 0 0 0 0 0 0 0 0 0 0 0 0 0 0 0 0 0 0 7 11 9 12 3 4 0 0 0 3 4 0 3 0 0 0 0 0
0 0 0 0 0 0 0 0 0 0 0 0 0 0 0 0 0 0 0 0 0 0 0 0 0 0 0 0 0 0 0 0 0 0 0 0 0 0 0 7 0 0 1
0 0 0 0 0 0 0 0 0 0 0 0 0 0 0 0 0 0 0 0 0 0 0 0 0 0 0 2 0 0 0 0 0 0 0 0 0 2 2 1 0 1 1
0 0 0 0 0 0 0 0 0 0 0 0 0 0 0 0 0 0 0 0 0 0 0 0 0 0 0 0 0 0 0 0 0 0 0 0 0 0 0 0 0 7 4
CIN
0 0 0 0 -27 -43 0 0 0 0 0 0 -141 -88 -65 -52 -44 -40 -43 -40 -39 -43 -42 -45 -45 -67 0 0 0 0 0 0 -2 -1 -3 0 -41 -81 -66 -75 -75 -75 -8
0 0 0 0 0 0 0 0 0 0 0 0 -106 -89 -97 -56 -42 -56 -37 -30 -34 -38 -36 -40 -44 0 0 0 0 -47 0 0 0 -3 -1 0 -49 -59 -57 -52 -55 -48 -17
-26 -82 0 0 0 0 0 0 0 0 0 0 -99 -94 -81 -39 -37 -45 -40 -42 -40 -35 -39 -37 -46 0 0 0 0 -37 -41 -42 -3 -22 0 0 0 -28 -22 -11 -5 -6 -14
0 0 0 0 -2 0 0 0 0 0 0 0 0 -30 -57 -38 -35 -18 -33 -43 -38 -38 -43 -40 -49 0 0 -30 0 -40 -25 -13 0 -4 0 0 0 -31 -24 -20 -24 -57 -46
0 0 0 0 -10 0 0 0 0 0 -14 -2 -24 0 -58 0 -45 -43 -35 -53 -41 -40 -48 -40 -47 0 0 -61 -49 -2 -32 -8 0 0 0 0 0 -2 -17 -29 -66 -73 -58
0 0 0 0 0 0 0 0 0 0 0 -35 -20 -27 -35 0 -69 -48 -56 -63 -29 -33 -25 -36 -45 -15 0 -51 -39 -40 -37 -9 0 0 -4 0 -3 -11 0 -31 -52 -51 -21
0 0 0 0 0 -5 -4 0 0 0 0 0 0 -11 -20 -27 -64 -50 -62 -69 -35 -48 -28 -19 -37 -47 -17 -10 -49 -46 -37 -24 -19 -10 -24 -11 0 0 -7 -73 0 0 0
0 0 0 0 0 -19 0 0 0 -18 0 0 -16 -10 -27 -49 -66 -63 -66 -70 -46 -48 -40 -45 0 0 0 -44 -27 -23 -39 -95 -81 -32 -51 -75 -111 -4 0 0 0 0 0
0 0 0 0 0 0 0 0 0 0 0 -23 -13 -34 -44 -40 -54 -55 -79 -59 -53 -7 -1 -45 -48 -42 0 -55 -32 -43 0 -87 -45 -19 0 0 0 0 0 0 0 0 0
0 0 0 0 0 0 0 0 -13 -2 -16 -22 -11 -7 -41 -56 -75 0 -68 -52 -47 0 -32 -42 -57 -41 0 0 -18 -40 0 0 0 0 0 0 -70 0 0 0 0 0 0
0 0 0 0 0 0 0 0 -8 -43 -24 0 -6 -8 -26 -49 -62 -11 0 0 0 0 -28 -27 -38 -49 0 0 -53 -11 0 0 0 0 0 0 0 0 0 0 0 0 -38
0 0 0 0 0 0 0 0 0 -46 -35 -15 -15 -10 -3 -27 -61 0 -68 0 0 -32 -34 -35 -54 -8 0 0 0 0 0 0 0 0 0 0 0 0 0 0 0 0 0
0 0 0 0 0 0 0 -29 -37 -36 -31 0 -1 0 -23 -19 -44 0 0 0 0 -54 -59 -78 -65 -54 0 0 0 0 0 0 0 0 0 0 0 0 0 0 0 0 0
0 0 0 -26 -21 0 0 -53 -39 -31 -23 -35 0 0 0 -8 -28 0 0 0 0 -46 -20 -32 -97 -67 0 0 0 0 0 0 0 0 0 0 0 0 0 0 0 0 0
0 0 0 -25 -26 0 0 -46 -35 -21 0 0 0 0 0 0 0 0 0 0 0 0 -41 0 0 0 0 0 0 0 0 0 0 0 0 0 -53 0 0 0 0 0 0
-32 -25 0 0 -20 -21 0 -35 -49 -15 -20 -9 0 0 0 0 0 0 0 0 0 0 0 -12 0 0 0 0 0 0 0 0 0 0 0 0 0 -54 -55 -73 -63 -49 -46
-29 -1 0 0 -20 -12 0 0 0 0 0 0 0 0 0 0 0 0 0 0 0 0 0 0 0 0 0 0 -88 -108 0 0 0 0 0 0 0 0 0 -40 -51 -63 -47
0 0 0 0 -27 -26 0 0 0 0 0 0 0 0 0 0 0 0 0 0 0 0 0 0 0 -95 -78 -67 -91 -90 -89 -94 -19 0 0 0 0 0 0 0 0 -24 -13
0 0 0 0 0 0 0 0 0 0 0 0 0 0 0 0 0 0 0 0 0 0 0 0 0 -43 -76 -64 -74 -80 -98 -106 0 0 0 0 0 0 0 0 0 0 0
0 0 0 0 0 0 0 0 0 0 0 0 0 0 0 0 0 0 0 0 0 0 0 0 -88 -105 -94 -16 -62 -63 -43 -42 -22 0 0 0 0 0 0 0 0 0 0
0 0 0 0 0 0 0 0 0 0 0 0 0 0 0 0 0 0 0 0 0 -45 0 0 -1 -71 -89 -79 -42 0 -68 -55 -61 -94 -3 -99 -73 -58 -60 0 0 0 0
0 0 0 0 0 0 0 0 0 0 0 0 0 0 0 0 0 0 0 0 0 0 0 -51 -51 -57 -66 -73 -64 -61 -67 -15 -55 -53 -57 -55 0 0 0 0 0 0 0
0 0 0 0 0 0 0 0 0 0 0 0 0 0 0 0 0 0 0 0 0 0 0 0 -12 -61 -74 -74 -73 -83 -68 0 0 0 -90 -84 0 -88 0 0 0 0 0
0 0 0 0 0 0 0 0 0 0 0 0 0 0 0 0 0 0 0 0 0 0 0 0 0 0 0 0 0 0 0 0 0 0 0 0 0 0 0 -72 -18 0 -54
0 0 0 0 0 0 0 0 0 0 0 0 0 0 0 0 0 0 0 0 0 0 0 0 0 0 0 -20 -15 -6 0 0 0 0 0 0 0 -139 -144 -125 -99 -92 -82
0 0 0 0 0 0 0 0 0 0 0 0 0 0 0 0 0 0 0 0 0 0 0 0 0 0 0 0 0 0 0 0 0 0 0 0 0 0 0 0 -47 -97 -85
Wind_Speed
22 25 24 28 27 26 27 26 24 24 24 23 19 16 13 17 27 25 24 18 24 27 25 24 26 25 25 20 16 14 9 3 8 24 26 24 22 19 15 16 19 22 25
25 27 28 29 28 25 26 25 24 25 24 21 10 9 7 19 26 26 27 24 25 23 23 23 23 24 25 19 12 10 6 6 7 14 21 20 17 15 11 10 14 18 21
29 30 30 29 26 25 26 27 26 28 27 28 14 8 8 16 23 26 27 27 18 19 21 22 22 23 23 21 11 8 10 8 9 13 17 19 16 13 8 9 8 8 7
31 31 31 27 22 24 27 27 28 30 29 22 15 10 10 27 26 22 29 26 20 21 21 22 21 21 22 22 17 10 9 9 13 17 24 22 19 17 19 11 2 2 3
31 30 30 29 25 25 28 29 29 28 29 24 21 22 25 29 29 24 25 27 16 23 19 20 20 19 19 18 16 12 10 12 15 19 26 24 23 22 21 19 6 11 6
31 29 29 28 28 27 26 28 28 28 27 26 24 26 29 31 27 28 24 23 19 22 22 20 18 17 15 13 13 12 11 7 8 14 19 28 28 27 25 20 14 18 17
29 28 27 28 28 26 26 27 29 30 27 26 23 21 21 24 28 29 29 27 26 20 19 22 19 16 14 12 10 7 8 12 16 20 23 26 32 31 32 30 20 19 21
29 28 26 28 28 27 28 29 29 29 28 26 24 21 19 19 26 26 29 28 25 21 18 22 15 15 13 11 12 8 6 5 16 17 19 22 25 27 27 27 23 18 19
29 28 28 28 27 30 30 30 29 29 27 24 23 24 20 21 22 24 18 8 17 22 20 20 19 17 15 15 15 10 7 5 7 16 17 19 22 24 25 26 23 21 21
27 27 27 28 29 30 32 30 27 27 24 23 22 22 21 24 22 17 7 15 18 19 19 22 21 20 17 17 19 16 8 10 12 13 14 14 19 25 25 23 26 20 19
25 26 25 27 30 31 31 28 27 26 23 22 21 21 22 21 24 22 13 20 22 21 20 21 20 18 16 16 17 17 14 13 13 13 14 14 14 20 23 24 25 23 21
26 27 25 25 28 29 29 29 25 23 22 20 19 19 20 22 21 21 11 22 19 18 22 19 19 18 14 15 15 16 15 14 15 16 16 16 18 20 23 21 21 21 20
26 27 26 23 27 29 28 27 24 22 20 20 19 18 18 18 19 17 14 21 21 19 16 18 18 21 21 18 17 17 17 17 17 17 16 16 20 22 23 21 19 17 15
25 27 28 23 24 26 28 24 22 20 19 19 18 18 19 18 19 19 19 26 28 22 20 18 17 18 20 20 19 19 19 19 19 19 17 17 18 20 22 23 22 19 17
24 25 28 24 23 23 26 21 18 16 16 17 16 15 16 17 18 21 22 24 30 26 21 20 19 21 22 23 23 23 23 23 23 21 20 18 18 19 19 19 19 19 18
24 26 26 24 20 20 21 17 15 16 17 16 16 16 16 17 16 18 17 17 23 17 23 24 22 20 22 23 23 23 23 24 24 24 24 22 20 18 14 15 16 19 15
21 22 23 21 17 11 9 13 13 13 14 15 14 13 14 16 16 17 16 13 14 18 25 26 26 24 23 23 23 23 23 22 23 24 25 25 22 21 21 20 17 11 6
19 18 18 17 12 8 8 11 14 13 12 10 12 13 14 15 15 17 21 18 19 20 21 25 27 25 25 24 22 23 25 24 24 24 21 19 18 18 20 20 20 16 10
17 15 14 13 10 9 9 10 14 14 14 13 13 14 13 14 15 16 18 21 24 24 23 23 24 25 23 23 21 20 21 20 21 23 22 17 12 11 13 14 11 10 11
14 12 11 10 9 10 10 11 13 15 16 16 16 16 17 16 15 15 17 21 23 26 26 26 23 23 23 22 22 21 20 21 20 17 18 18 18 17 20 22 19 14 11
11 11 8 7 7 9 11 13 15 17 18 19 20 20 19 19 18 19 18 17 17 18 21 23 22 20 18 19 21 24 24 22 21 21 17 17 16 18 18 20 17 13 14
8 7 7 5 7 10 13 15 18 20 21 22 22 21 22 21 23 22 21 21 21 20 21 22 19 19 18 19 20 22 23 23 22 21 21 22 21 20 19 17 15 14 14
5 4 3 4 5 9 15 17 20 23 25 25 25 25 24 23 23 23 24 26 26 25 23 22 21 20 20 21 21 21 21 20 20 20 19 19 18 16 17 17 17 17 16
2 3 1 3 4 6 10 16 23 25 26 28 28 28 28 28 26 25 24 25 25 27 28 28 27 26 23 18 17 18 19 20 20 20 20 21 19 19 18 18 17 15 15
4 3 2 0 3 5 7 11 14 20 28 30 31 32 32 31 30 28 26 24 25 26 26 27 28 27 25 22 19 20 21 21 21 23 22 23 24 22 22 21 20 19 17
10 9 8 6 5 2 7 10 12 16 19 22 30 33 34 31 28 27 25 23 23 23 23 24 24 25 25 23 23 21 20 21 22 22 23 25 27 26 25 26 25 24 24
Wind_Direction
345 345 344 342 342 342 342 342 345 342 339 334 324 309 300 298 288 289 292 311 290 277 292 299 287 300 307 332 356 7 18 116 201 301 308 295 289 281 270 258 258 259 252
344 343 342 342 343 344 345 346 349 346 346 344 336 317 303 297 284 277 271 285 284 289 290 288 293 297 304 336 7 15 32 174 185 205 306 283 279 274 278 269 261 259 253
342 342 341 341 344 347 347 346 349 344 342 337 350 342 321 303 276 268 260 262 293 292 289 276 285 306 314 334 21 187 186 165 161 161 179 212 235 245 276 261 280 280 281
344 343 343 344 345 347 347 347 348 343 341 343 338 348 325 249 256 279 250 254 281 278 278 268 280 317 311 299 356 157 141 189 177 174 182 182 192 190 183 198 227 246 218
346 346 347 348 347 344 344 346 348 343 342 346 326 294 269 248 236 256 245 240 284 254 275 255 275 302 300 293 324 179 238 271 221 185 183 181 182 176 176 179 170 177 164
349 350 350 348 345 345 345 347 348 337 331 326 316 268 246 243 250 234 248 240 263 249 244 245 285 269 316 263 211 150 160 213 199 196 188 152 166 170 171 179 182 177 178
351 353 353 351 348 346 346 347 342 325 311 299 305 302 270 245 233 227 222 226 229 254 253 224 248 250 273 250 220 231 237 178 172 166 166 163 149 156 150 155 173 177 178
355 357 357 353 351 347 343 343 337 323 300 288 278 268 271 257 236 235 218 223 233 243 258 218 273 246 257 251 233 224 245 217 174 168 164 161 160 158 159 159 166 173 175
359 1 0 355 354 346 339 338 334 317 301 293 278 256 270 251 243 241 250 269 254 240 251 241 243 239 240 229 223 226 214 217 203 182 179 176 170 165 165 165 168 170 172
3 4 4 359 354 346 336 332 333 317 303 292 284 269 267 250 247 253 265 258 256 256 259 239 236 238 247 235 213 215 239 214 200 194 189 187 186 175 172 175 168 180 186
5 4 4 1 354 345 338 332 322 308 297 288 281 272 252 249 239 243 255 246 245 247 243 234 239 244 254 247 231 223 226 214 207 202 198 200 202 190 179 178 173 177 181
6 4 5 3 359 351 339 325 315 302 294 285 282 274 259 249 249 245 257 240 249 245 237 245 242 239 252 239 237 229 227 228 221 215 212 212 207 198 190 191 189 193 198
11 9 6 3 1 354 338 319 304 290 283 279 277 273 263 256 235 248 251 238 238 242 250 249 246 231 226 230 228 230 230 229 224 221 224 228 219 212 209 210 219 233 248
11 10 8 9 6 2 332 312 294 283 276 273 274 264 253 259 240 241 242 227 220 235 242 246 251 247 231 230 233 232 230 230 227 228 230 236 230 223 216 218 219 234 252
13 13 15 15 17 16 328 300 286 282 277 263 269 263 251 254 244 237 235 230 213 228 237 240 245 234 230 231 232 233 234 233 231 234 235 240 241 237 234 238 245 252 252
18 18 21 28 33 32 314 286 280 275 269 262 260 255 248 240 246 243 242 239 228 241 233 228 231 233 231 231 234 235 236 234 235 236 237 240 245 250 272 275 273 260 274
24 30 34 41 56 88 245 263 263 265 270 259 250 256 260 246 249 236 242 247 248 242 231 227 228 230 229 231 234 236 235 240 242 242 244 243 251 258 265 268 286 321 4
34 42 46 56 81 125 195 235 237 241 243 259 261 277 274 258 258 245 230 240 241 240 238 229 227 232 234 237 246 245 243 247 250 252 260 267 274 278 279 282 291 310 329
44 53 62 79 104 133 157 208 219 229 240 251 263 278 282 275 267 248 245 243 239 241 243 241 241 241 246 250 259 264 261 269 275 262 264 276 293 305 309 313 319 316 319
52 63 80 97 117 127 157 199 223 230 237 246 256 265 273 273 265 267 261 251 251 247 246 246 252 254 256 261 264 270 277 275 279 288 276 280 287 296 300 301 301 307 315
58 64 86 116 159 174 175 206 226 239 240 246 253 261 273 273 277 273 274 277 273 270 261 257 257 264 269 273 274 274 276 280 282 283 293 288 289 295 301 310 313 305 308
59 71 82 116 168 190 196 201 230 252 254 263 261 262 263 268 266 270 275 274 269 269 265 260 268 271 276 280 282 282 280 280 285 286 284 283 287 292 298 306 315 319 313
47 69 98 112 144 184 212 215 222 241 258 265 277 282 281 281 285 285 277 269 267 268 272 274 275 279 283 284 285 285 285 285 286 288 288 289 292 298 297 298 304 306 312
8 25 120 151 134 163 188 211 237 243 248 259 268 268 271 277 285 288 286 281 279 275 271 272 274 276 280 285 288 289 288 288 289 289 288 287 290 297 299 304 308 310 310
310 323 350 202 185 181 184 202 210 222 251 257 261 268 272 276 277 282 287 287 284 282 280 278 275 276 278 280 282 283 283 285 286 290 285 285 287 291 294 300 304 306 309
313 310 320 313 316 255 214 211 212 216 221 229 255 272 276 282 286 289 292 293 292 291 289 286 283 279 276 276 278 280 280 282 285 288 287 284 283 288 292 292 296 296 295